Renton, WA
on Thursday, December 27, 2012

Thursday
Previous Day Next Day
Daily Summary
 ActualAverage (KSEA)Record (KSEA)
Temperature
Mean Temperature °F 40°F  
Max Temperature 46°F 45°F 58°F (1994)
Min Temperature 39°F 36°F 20°F (1968)
Degree Days
Heating Degree Days 22 25  
Month to date heating degree days 660  
Since 1 July heating degree days 1843  
Cooling Degree Days 0 0  
Month to date cooling degree days 0  
Year to date cooling degree days 189  
Moisture
Dew Point 39°F   
Average Humidity 86    
Maximum Humidity 96    
Minimum Humidity 73    
Precipitation
Precipitation 0.17 in 0.17 in 1.53 in (1998)
Month to date precipitation 4.71  
Year to date precipitation 36.85  
Snow
Snow 0.00 in in 1.20 in (1965)
Month to date snowfall  
Since 1 July snowfall  
Snow Depth in   
Wind
Wind Speed 4 mph   
Max Wind Speed 9 mph   
Max Gust Speed mph   
Visibility 8 miles   
Events Rain   

Key: T is trace of precipitation, MM is missing value
Source: NWS Daily Summary
Time(PST)TemperatureDew PointHumidity Pressure Visibility Wind DirectionWind SpeedGust SpeedPrecipitationEvents Conditions
12:32 AM 44.6°F 39.2°F 81% 29.93 in 4.0 miles Calm Calm - 0.03 in Rain Light Rain
12:50 AM 44.6°F 39.2°F 81% 29.94 in 7.0 miles South 9.2 mph - 0.03 in Rain Light Rain
12:53 AM 44.1°F 39.0°F 82% 29.95 in 7.0 miles South 6.9 mph - 0.03 in Rain Light Rain
1:07 AM 44.6°F 39.2°F 81% 29.94 in 10.0 miles South 5.8 mph - 0.00 in Rain Light Rain
1:53 AM 45.0°F 39.0°F 80% 29.99 in 10.0 miles South 5.8 mph - 0.01 in Rain Light Rain
2:53 AM 44.1°F 39.9°F 85% 30.01 in 10.0 miles South 5.8 mph - 0.01 in Rain Light Rain
3:45 AM 44.6°F 39.2°F 81% 30.00 in 10.0 miles SSE 6.9 mph - 0.01 in Rain Light Rain
3:53 AM 44.1°F 39.9°F 85% 30.01 in 10.0 miles South 6.9 mph - 0.01 in Rain Light Rain
4:42 AM 44.6°F 39.2°F 81% 30.01 in 10.0 miles SSE 3.5 mph - N/A Rain Light Rain
4:53 AM 44.1°F 39.9°F 85% 30.04 in 10.0 miles SSE 3.5 mph - 0.01 in Rain Light Rain
5:44 AM 44.6°F 39.2°F 81% 30.04 in 2.5 miles East 3.5 mph - 0.04 in Rain Light Rain
5:53 AM 44.1°F 41.0°F 89% 30.05 in 4.0 miles ESE 3.5 mph - 0.05 in Rain Light Rain
6:06 AM 44.6°F 41.0°F 87% 30.04 in 6.0 miles Calm Calm - 0.01 in Rain Light Rain
6:31 AM 44.6°F 41.0°F 87% 30.05 in 3.0 miles Calm Calm - 0.02 in Rain Light Rain
6:53 AM 44.1°F 41.0°F 89% 30.06 in 3.0 miles Calm Calm - 0.04 in Rain Light Rain
7:53 AM 43.0°F 41.0°F 93% 30.08 in 6.0 miles Calm Calm - 0.01 in   Overcast
8:53 AM 44.1°F 41.0°F 89% 30.10 in 7.0 miles East 3.5 mph - 0.00 in   Overcast
9:53 AM 43.0°F 41.0°F 93% 30.13 in 9.0 miles Variable 3.5 mph - 0.00 in Rain Light Rain
10:53 AM 43.0°F 39.0°F 86% 30.14 in 10.0 miles Calm Calm - 0.00 in   Overcast
11:53 AM 44.1°F 41.0°F 89% 30.14 in 10.0 miles SSE 3.5 mph - N/A   Overcast
12:06 PM 44.6°F 39.2°F 81% 30.12 in 10.0 miles SSE 3.5 mph - N/A   Overcast
12:53 PM 44.1°F 39.9°F 85% 30.14 in 8.0 miles SSE 4.6 mph - 0.00 in   Overcast
1:53 PM 45.0°F 41.0°F 86% 30.14 in 10.0 miles East 3.5 mph - 0.00 in   Overcast
2:53 PM 46.0°F 37.9°F 73% 30.15 in 10.0 miles South 5.8 mph - 0.00 in   Overcast
3:53 PM 45.0°F 37.9°F 76% 30.16 in 10.0 miles SSW 6.9 mph - N/A   Overcast
4:53 PM 44.1°F 37.0°F 76% 30.17 in 10.0 miles SE 3.5 mph - N/A   Overcast
5:53 PM 41.0°F 39.0°F 93% 30.17 in 10.0 miles ESE 3.5 mph - N/A   Mostly Cloudy
6:53 PM 41.0°F 39.0°F 93% 30.17 in 10.0 miles Calm Calm - N/A   Mostly Cloudy
7:53 PM 41.0°F 39.0°F 93% 30.17 in 10.0 miles Calm Calm - N/A   Overcast
8:53 PM 39.0°F 37.9°F 96% 30.17 in 10.0 miles Calm Calm - N/A   Scattered Clouds
9:53 PM 39.9°F 37.0°F 89% 30.18 in 10.0 miles Calm Calm - N/A   Mostly Cloudy
10:53 PM 39.0°F 37.9°F 96% 30.18 in 10.0 miles Calm Calm - N/A   Overcast
11:53 PM 39.9°F 37.9°F 93% 30.19 in 10.0 miles Calm Calm - N/A   Overcast
Moon Phase
Dec. 27 Dec. 28 Jan. 04 Jan. 11 Jan. 18
Sunrise:07:56 AM (PST) Moon Rise:04:15 PM (PST)12/27
Sunset:04:24 PM (PST) Moon Set:07:08 AM (PST)12/27

Copyright © 2014 The Weather Underground, Inc.